Location: Ward Pound Ridge Reservation
(41.2500°N, 73.6000°W)
Time: 00:44:12
(UTC-04:00)

ISS - Pass Details

Date: 11 October 2017
Orbit: 401 x 408 km, 51.6° (Epoch: 21 October)

Event Time Altitude Azimuth Distance (km) Brightness Sun altitude
Rises 20:26:34 0° 304° (NW) 2,327 1.1 -24.6°
Reaches altitude 10° 20:28:39 10° 302° (WNW) 1,465 -0.1 -25.0°
Enters shadow 20:30:27 29° 295° (WNW) 770 -1.8 -25.3°
